Flight Information

DEPARTURE
EAGLE, CO
Elevation:
6547
Runways:
7/25 - 9000x150 - ASPH-E
ATIS:
135.575
Clearance Delivery:
124.75
Ground:
121.8
Tower:
EAGLE TOWER 119.8
DESTINATION
,
Elevation:
TPA:
1000 (est.)


6176.6 NM79° True-12° Var66° HDG

Flight Plan:
(click to file on line)

1. Type
2. Aircraft Identification
3. Aircraft Type / Special Equipment
4. True Airspeed
kts
5. Departure Airport
(ICAO code)
6. Arriving Airport
(ICAO code)
7. Cruising Altitude
ft
8. Alternate Airport
(ICAO code)
9. Route of Flight
10. Remarks


00:00:00 Departure ATIS: Destination ATIS:

Clearance Limit:
Route:
Altitude: Expect in minutes
Frequency:
Transponder: (7500 Hijack / 7600 Lost Comms / 7700 Emergency)


KEGE 211556Z 00000KT 10SM CLR 07/M06 A3062 RMK AO2 SLP366 T00671056 PNO $
Time: 2021-09-21T15:56:00Z
1632243236
Winds: calm
Visibility: 10.0 sm
Clouds (AGL): CLR
Temperature: 6.7 C
Dew Point: -5.6 C
Pressure: 30.620079 in Hgbr


Notes:

Data extracted from FAA Digital Chart Supplement. Effective: 0901Z Thursday, AUG 12, 2021 to 0901Z Thursday, OCT 7, 2021
Current ATIS data is provided courtisy of PilotEdge.